Regional Weather Roundup
Issued by NWS

Home | Current Version | Previous Version | Text Only | Print | Product List | Glossary Off
Versions: 1 2 3 4 5 6 7 8 9 10 11 12 13 14 15 16 17 18 19 20 21 22 23 24 25 26 27 28 29 30 31 32 33 34 35 36 37 38 39 40 41 42 43 44 45 46 47 48 49 50

000
ASUS45 KABQ 291601
RWRNM
WEATHER ROUNDUP FOR NEW MEXICO
NATIONAL WEATHER SERVICE ALBUQUERQUE NM
1000 AM MDT SUN MAR 29 2015

NOTE: "FAIR" MEANS FEW OR NO CLOUDS BELOW 12,000 FEET AGL WITH NO
       SIGNIFICANT WEATHER OR OBSTRUCTIONS TO VISION.

      THIS PRODUCT IS RELEASED AS TWO VERSIONS.  ONE VERSION NEAR
      THE TOP OF THE HOUR CONTAINING PRELIMINARY DATA FROM ALBUQUERQUE
      AND OTHER STATIONS.  A FINAL VERSION WITH ADDITIONAL DATA IS
      ISSUED ABOUT 10 MINUTES AFTER THE HOUR.

NMZ501-503-504-510>518-291700-
NORTHWEST PLATEAU/NORTHCENTRAL MOUNTAINS

CITY           SKY/WX    TMP DP  RH WIND       PRES   REMARKS
FARMINGTON     SUNNY     53  24  32 SE10      30.25F
LOS ALAMOS     SUNNY     53  22  29 N3        30.35R
SANTA FE       SUNNY     59  21  23 N15       30.29R
TAOS           SUNNY     57  25  28 E6        30.33R
ANGEL FIRE     FAIR      53  22  31 CALM      30.37S

$$
NMZ402-403-502-505>509-291700-
WESTCENTRAL MOUNTAINS/SOUTHWEST MOUNTAINS

CITY           SKY/WX    TMP DP  RH WIND       PRES   REMARKS
GALLUP         SUNNY     60  19  20 S9        30.32S
GRANTS         SUNNY     56  18  22 SE10      30.34S

$$
NMZ407-409-411-412-291700-
SOUTHERN DESERTS

CITY           SKY/WX    TMP DP  RH WIND       PRES   REMARKS
LORDSBURG      FAIR      64  19  17 CALM      30.23S
DEMING         SUNNY     63  17  17 S3        30.24R
LAS CRUCES     SUNNY     74  10   8 N9        30.23S
ALAMOGORDO     MOSUNNY   72  14  11 NW6       30.20S
T OR C         SUNNY     69  16  13 VRB3      30.24S

$$
NMZ519>523-291700-
CENTRAL VALLEYS/CENTRAL HIGHLANDS

CITY           SKY/WX    TMP DP  RH WIND       PRES   REMARKS
ALBUQUERQUE    MOSUNNY   61  20  20 SW7       30.27R
DOUBLE EAGLE   MOSUNNY   63  18  17 CALM      30.28R
CLINES CORNERS SUNNY     62  15  16 NW12      30.30R
BELEN          FAIR      66  15  13 S3        30.26F
SOCORRO        FAIR      67  17  14 SE5       30.25R

$$
NMZ524>526-539-540-291700-
SOUTHCENTRAL MOUNTAINS

CITY           SKY/WX    TMP DP  RH WIND       PRES   REMARKS
RUIDOSO        NOT AVBL

$$
NMZ527>531-291700-
NORTHEAST HIGHLANDS/NORTHEAST PLAINS

CITY           SKY/WX    TMP DP  RH WIND       PRES   REMARKS
LAS VEGAS      SUNNY     63  21  20 NE17G26   30.31R
RATON          SUNNY     61  26  26 NE18G29   30.26R
CLAYTON        SUNNY     63  30  28 N29G36    30.24R

$$
NMZ532>537-291700-
EASTCENTRAL PLAINS

CITY           SKY/WX    TMP DP  RH WIND       PRES   REMARKS
TUCUMCARI      SUNNY     72  24  16 NE25G35   30.18R
CANNON AFB     NOT AVBL
CLOVIS AIRPORT SUNNY     72  28  20 N25G35    30.18R

$$
NMZ028-029-538-291700-
SOUTHEAST PLAINS

CITY           SKY/WX    TMP DP  RH WIND       PRES   REMARKS
ROSWELL        SUNNY     80  25  13 N13       30.13R
ARTESIA        SUNNY     68  32  26 E5        30.14R
CARLSBAD       SUNNY     72  26  18 NE5       30.12R
HOBBS          SUNNY     77  25  14 NW16G22   30.12R


$$



USA.gov is the U.S. government's official web portal to all federal, state and local government web resources and services.